Starlink 33739

operational
NORAD ID: 63572 Int'l Des: 2025-076 Owner: SPXS Country: US Constellation: starlink
LEOCIRCULAR

Über Starlink 33739

Beschreibung wird geladen...

Live-Position

3D-Globus wird geladen...

Nächste Überflüge

Höhenverlauf

Altitude vs Time

uPlot chart will show altitude changes over time

Zweizeiliger Elementsatz

1 63572U 25076D 25258.30441636 .00080548 00000-0 28985-2 0 9991
2 63572 43.0019 232.5150 0001625 267.6113 92.4552 15.27650607 25003
Epoch: 15. Sept. 2025 • Age: 17 hours

Aktueller Status

Höhe 490.6 km
Geschwindigkeit 7.62 km/s
Subsatellitenpunkt -32.26°S, 95.62°E
Startdatum 14. Apr. 2025
Alter 0.4 years
Typ internet

Technische Details

Klassifizierung Payload
Masse 575.00 kg
Trockenmasse 530.00 kg
Gesamtmasse 575.00 kg
Länge 0.30 m
Durchmesser 4.10 m
Spannweite 29.00 m
Form Box + pan
Hersteller SPXS
Bus-Typ Starlink V2MO
Phasenstatus In Orbit
Besitzer/Staat SPXS/US

Große Konstellationen

Loading constellations...